Location: Unspecified
(43.4680°N, 87.1740°E)
Time: 21:42:35
(UTC+00:00)

Cosmos 192 - Pass Details

Date: 17 April 2021
Orbit: 701 x 713 km, 74.0° (Epoch: 11 May)

Event Time Altitude Azimuth Distance (km) Brightness Sun altitude
Rises 15:02:19 0° 342° (NNW) 3,125 8.6 -20.9°
Reaches altitude 10° 15:04:41 10° 345° (NNW) 2,201 7.6 -21.3°
Maximum altitude 15:09:38 65° 68° (ENE) 782 4.3 -22.0°
Enters shadow 15:10:25 56° 115° (ESE) 847 4.3 -22.1°
